Regional Weather Roundup
Issued by NWS

Home | Current Version | Previous Version | Text Only | Print | Product List | Glossary On
Versions: 1 2 3 4 5 6 7 8 9 10 11 12 13 14 15 16 17 18 19 20 21 22 23 24 25 26 27 28 29 30 31 32 33 34 35 36 37 38 39 40 41 42 43 44 45 46 47 48 49 50
000
ASUS43 KMPX 241801
RWRMN
WEATHER ROUNDUP FOR MINNESOTA
NATIONAL WEATHER SERVICE TWIN CITIES/CHANHASSEN MN
100 PM CDT THU JUL 24 2014


NOTE: "FAIR" INDICATES FEW OR NO CLOUDS BELOW 12,000 FEET WITH NO
SIGNIFICANT WEATHER AND/OR OBSTRUCTIONS TO VISIBILITY. N/A MEANS
CURRENT SKY AND/OR WEATHER CONDITIONS ARE NOT AVAILABLE.

MNZ060>063-068>070-241900-
   Twin Cities Metro

CITY           SKY/WX    TMP DP  RH WIND       PRES   REMARKS
TWIN CITIES    PTSUNNY   80  54  40 S8        30.07F
6HR MIN TEMP:  65; 6HR MAX TEMP:  81;

ST PAUL        MOSUNNY   79  57  46 S9        30.07F
CRYSTAL        MOSUNNY   80  53  39 MISG      30.05F
BLAINE         MOSUNNY   81  55  41 S12       30.08F
LAKEVILLE      MOSUNNY   77  57  50 S7        30.07F
EDEN PRAIRIE   PTSUNNY   79  57  46 VRB7      30.05F
6HR MIN TEMP:  64; 6HR MAX TEMP:  81;

SOUTH ST PAUL  PTSUNNY   80  54  40 S10G16    30.07F
LAKE ELMO      PTSUNNY   77  59  53 S10G16    30.10F
$$
MNZ001>005-007-008-013>017-022>024-027-028-241900-
   Northwest Minnesota

CITY           SKY/WX    TMP DP  RH WIND       PRES   REMARKS
BEMIDJI        CLOUDY    74  57  54 S9        30.09R
HALLOCK        CLOUDY    72  63  73 SE15      29.89F
ROSEAU         PTSUNNY   73  63  68 SW7       30.01F
WARROAD        MOSUNNY   73  59  60 W7        30.03F
THIEF RVR FALL CLOUDY    73  61  64 S9        30.02F
CROOKSTON      CLOUDY    73  63  68 S9        29.99F
FOSSTON        CLOUDY    73  59  60 SW13      30.07F
DETROIT LAKES  CLOUDY    73  55  53 W5        30.11R
MOORHEAD       LGT RAIN  70  64  83 SE18      29.97F
PARK RAPIDS    CLOUDY    75  56  51 SW9       30.09R
$$
MNZ006-009>011-018-025>026-241900-
   North Central Minnesota

CITY           SKY/WX    TMP DP  RH WIND       PRES   REMARKS
BAUDETTE       MOSUNNY   75  56  51 VRB7      30.06F
FLAG ISLAND    MOSUNNY   70  59  68 S10       30.02F
INTL FALLS     PTSUNNY   73  53  49 S8        30.05F
6HR MIN TEMP:  52; 6HR MAX TEMP:  74;

WASKISH        MOSUNNY   73  61  64 CALM      30.06F
BIG FORK       MOSUNNY   73  54  49 W3        30.07F
LONGVILLE      PTSUNNY   73  57  56 SW3       30.08S
GRAND RAPIDS   MOSUNNY   73  52  46 W6        30.07F
CRANE LAKE     PTSUNNY   72  50  46 S5        30.08F
ORR            MOSUNNY   72  50  46 SW5       30.04F
COOK           MOSUNNY   73  54  49 CALM      30.08F
$$
MNZ012-019>021-037-241900-
   Northeast Minnesota

CITY           SKY/WX    TMP DP  RH WIND       PRES   REMARKS
DULUTH         PTSUNNY   74  55  51 W8        30.08F
6HR MIN TEMP:  59; 6HR MAX TEMP:  75;

ELY            PTSUNNY   72  52  49 W6        30.08F
HIBBING        PTSUNNY   74  52  46 CALM      30.07F
EVELETH        PTSUNNY   72  52  49 S7        30.09F
DULUTH HARBOR  MOSUNNY   64  57  77 E7        30.09F
TWO HARBORS    MOSUNNY   73  55  53 S7        30.08F
SILVER BAY     PTSUNNY   72  55  56 S12       30.08F
GRAND MARAIS     N/A     54  47  77 W6        30.09F
G MARAIS ARPRT MOSUNNY   68  48  49 S9        30.11F
$$
MNZ029>031-032-039>041-046>048-054>057-064-241900-
   West Central Minnesota

CITY           SKY/WX    TMP DP  RH WIND       PRES   REMARKS
FERGUS FALLS   CLOUDY    72  54  53 NW7       30.12R
WHEATON        TSTM      66  61  82 NW14      30.14R
MORRIS         PTSUNNY   73  59  60 SE10      30.00F
ALEXANDRIA     PTSUNNY   75  53  46 SE12G18   30.06F
ELBOW LAKE     CLOUDY    72  55  55 SE8       30.02F
WADENA         PTSUNNY   73  55  53 S8        30.06F
GLENWOOD       PTSUNNY   77  54  44 S6G16     30.04F
APPLETON       PTSUNNY   79  57  47 SE12      29.98F
BENSON         MOSUNNY   79  59  50 S13       30.00F
ORTONVILLE     PTSUNNY   73  61  64 S13       29.97F THUNDER
MADISON        PTSUNNY   77  61  57 SE18G24   29.96F
WILLMAR        FAIR      81  55  41 S10G17    30.02F
$$
MNZ033>034-036-042>043-049>051-058-059-241900-
   Central Minnesota

CITY           SKY/WX    TMP DP  RH WIND       PRES   REMARKS
ST CLOUD       MOSUNNY   81  51  35 SE10      30.06F
6HR MIN TEMP:  56; 6HR MAX TEMP:  82;

SAUK CENTRE    FAIR      77  55  45 E6        30.04F
PAYNESVILLE    PTSUNNY   75  54  47 E10       30.05F
AITKIN         PTSUNNY   79  55  44 S8        30.06F
PINE RIVER     PTSUNNY   73  55  53 S7        30.10F
BRAINERD       PTSUNNY   74  52  46 S7        30.08F
STAPLES        PTSUNNY   75  52  43 SE6       30.07F
LONG PRAIRIE   FAIR      77  54  44 SE9       30.06F
LITTLE FALLS   PTSUNNY   77  52  41 S7        30.07S
LITCHFIELD     PTSUNNY   79  57  47 S8        30.05F
BUFFALO        MOSUNNY   78  54  43 S8        30.06F
MAPLE LAKE     MOSUNNY   79  59  50 S6        30.07F
$$
MNZ037-044-045-052-053-241900-
   East Central Minnesota

CITY           SKY/WX    TMP DP  RH WIND       PRES   REMARKS
PRINCETON      MOSUNNY   81  54  39 S6        30.06F
MORA           PTSUNNY   75  52  43 SW8G16    30.09F
CAMBRIDGE      MOSUNNY   81  57  44 S9        30.05F
RUSH CITY      MOSUNNY   77  55  46 S7        30.08F
MOOSE LAKE     MOSUNNY   75  52  43 SW8       30.06F
HINCKLEY       FAIR      77  57  50 S8        30.08F
CLOQUET        MOSUNNY   75  50  41 S12G18    30.08F
MCGREGOR       PTSUNNY   75  52  43 S8        30.08F
$$
MNZ071>073-080-081-089-090-097-098-241900-
   Southwest Minnesota

CITY           SKY/WX    TMP DP  RH WIND       PRES   REMARKS
MONTEVIDEO     PTSUNNY   81  63  54 S14G20    29.99F
GRANITE FALLS  PTSUNNY   78  62  56 SE16      30.00F
CANBY          CLOUDY    75  61  61 S14G21    29.98F
MARSHALL       CLOUDY    75  57  53 S16       29.99F
REDWOOD FALLS  PTSUNNY   82  60  47 S16       30.01F
OLIVIA         MOSUNNY   79  59  50 S9G18     30.02F
PIPESTONE      CLOUDY    68  61  77 S22G30    29.96F
WINDOM         LGT RAIN  72  61  68 S10       30.07F
WORTHINGTON    CLOUDY    66  61  82 S13       30.07F
JACKSON        LGT RAIN  70  59  68 S10       30.12R
TRACY          CLOUDY    74  61  62 S15G21    29.99F
SLAYTON        CLOUDY    66  61  84 S30G38    29.91F
$$
MNZ065>067-074>077-082>085-091>093-241900-
   South Central Minnesota

CITY           SKY/WX    TMP DP  RH WIND       PRES   REMARKS
MANKATO        MOSUNNY   79  57  47 S13       30.07F
NEW ULM        MOSUNNY   79  61  53 S12       30.05F HAZE
ST JAMES       PTSUNNY   79  57  47 S12G18    30.08F
FAIRMONT       PTSUNNY   77  57  50 S12       30.10R
GLENCOE        MOSUNNY   81  53  38 S10       30.06F
FARIBAULT      MOSUNNY   82  48  30 S8G16     30.08F
OWATONNA       MOSUNNY   79  54  41 S12       30.08F
WASECA         MOSUNNY   77  52  41 S14       30.10F
ALBERT LEA     MOSUNNY   79  55  44 S9        30.09F
$$
MNZ078>079-086>088-094>096-241900-
   Southeast Minnesota

CITY           SKY/WX    TMP DP  RH WIND       PRES   REMARKS
ROCHESTER      MOSUNNY   77  57  50 S8        30.12F
6HR MIN TEMP:  59; 6HR MAX TEMP:  78;

RED WING       MOSUNNY   81  52  36 S7        30.08F
STANTON        MOSUNNY   79  55  43 S9        30.07F
DODGE CENTER   MOSUNNY   75  57  53 S7        30.10F
WINONA         PTSUNNY   77  55  47 SE8       30.11F
AUSTIN           N/A     77  55  47 S7        30.09F
PRESTON        MOSUNNY   76  58  55 SE3       30.13F
$$
ABBREVIATIONS USED IN REMARKS
   TC - TEMPERATURES IN CELSIUS
  WCI - WIND CHILL INDEX
   HX - HEAT INDEX
  VSB - VISIBILITY
$$



USA.gov is the U.S. government's official web portal to all federal, state and local government web resources and services.